Temperature
19 19 19 19 19 19 19 19 19 19 19 19 19 19 19 19 19 19 19 19 19 18 18 18 18 18 18 18 18 18 18 18 18 18 18 18 18 18 18 18 18 18 18
20 20 20 19 19 19 19 19 19 19 19 19 19 19 19 19 19 19 19 19 19 18 18 18 18 18 18 18 18 18 18 18 18 18 18 18 18 18 18 18 18 18 18
20 20 19 19 19 19 19 19 19 19 19 18 18 18 19 19 18 18 19 19 19 18 18 18 18 18 18 18 18 18 18 18 18 18 18 18 18 18 18 18 18 18 18
20 19 19 19 19 19 19 19 19 19 18 18 18 18 18 18 18 18 18 19 19 19 18 18 18 18 18 18 18 18 18 18 18 18 18 18 18 18 18 18 18 18 17
20 19 19 19 19 19 19 19 18 18 18 18 18 18 18 18 18 18 18 19 19 19 19 18 18 18 18 18 18 18 18 18 18 18 18 18 18 18 18 18 18 18 17
20 19 19 19 19 19 19 18 18 18 18 18 18 18 18 18 18 18 18 19 18 18 18 18 18 18 18 18 18 18 18 18 18 18 18 18 18 18 18 18 18 17 17
19 19 19 19 19 19 19 18 18 18 18 18 18 18 18 18 18 18 18 18 18 18 18 18 18 18 18 18 18 18 18 18 18 18 18 18 18 18 17 17 17 17 17
20 19 19 19 19 19 18 18 18 18 18 18 18 18 18 18 18 18 18 18 18 18 18 18 18 18 18 18 18 18 18 18 17 18 18 18 18 18 17 17 17 17 17
20 19 19 19 18 18 18 18 18 18 18 18 18 18 18 18 18 18 18 18 18 18 18 18 18 18 18 18 18 18 18 18 17 18 18 18 18 18 18 18 17 17 17
19 19 19 18 18 18 18 18 18 18 18 18 18 18 18 18 18 18 18 18 18 18 18 18 18 18 18 18 18 18 17 18 18 18 18 18 18 18 18 18 18 17 17
19 19 19 19 18 18 18 18 18 18 18 18 18 18 18 18 18 18 18 18 18 18 18 18 18 18 18 18 18 18 18 18 18 18 18 18 18 18 18 18 18 17 17
19 19 19 19 18 18 18 18 18 18 18 18 18 18 18 18 18 18 18 18 18 18 18 18 18 18 18 18 18 18 18 18 18 18 18 18 18 18 18 18 17 17 17
19 19 19 19 18 18 18 18 18 18 18 18 18 18 18 18 18 18 18 18 18 18 18 18 18 18 18 18 18 18 18 18 18 18 18 18 18 18 18 18 17 17 17
19 19 19 19 18 18 18 18 18 18 18 18 18 18 18 18 18 18 18 18 18 18 18 18 18 18 18 18 18 18 18 18 18 18 18 18 18 18 18 18 17 17 17
19 19 19 19 19 18 18 18 18 18 18 18 18 18 18 18 18 18 18 18 18 18 18 18 18 18 18 18 18 18 18 18 18 18 18 18 18 18 18 17 17 17 17
19 19 19 19 19 18 18 18 18 18 18 18 18 18 18 18 18 18 18 18 18 18 18 18 18 18 18 18 18 18 18 18 18 18 18 17 17 17 17 17 17 17 17
19 19 19 19 19 18 18 18 18 18 18 18 18 18 18 18 18 18 18 18 18 18 18 18 18 18 18 17 18 17 18 18 18 17 17 17 17 17 17 17 17 17 17
20 19 19 19 19 18 18 18 18 18 18 18 18 18 18 18 18 18 18 18 18 18 18 18 18 18 18 18 18 17 17 17 17 17 17 17 17 17 17 17 17 17 17
20 20 19 19 19 19 18 18 18 18 18 18 18 18 18 18 18 18 18 18 18 18 18 18 18 18 18 18 17 17 17 17 17 17 17 17 17 17 17 17 17 17 17
20 20 19 19 19 19 18 18 18 18 18 18 18 18 18 18 18 18 18 18 18 18 18 18 18 18 18 18 17 17 17 17 17 17 17 17 17 17 17 17 17 17 17
20 20 19 19 19 19 19 18 18 18 18 18 18 18 18 18 18 18 18 18 18 18 18 18 18 18 17 17 17 17 17 17 17 17 17 17 17 17 17 17 17 17 17
20 20 20 19 19 19 19 19 18 18 18 18 18 18 18 18 18 18 18 18 18 18 18 18 18 18 17 17 17 17 17 17 17 17 17 17 17 17 17 17 17 17 17
20 20 20 20 19 19 19 19 18 18 18 18 18 18 18 18 18 18 18 18 18 18 18 18 18 18 18 18 17 17 17 17 17 17 17 17 17 17 17 17 17 17 17
21 20 20 20 19 19 19 19 19 18 18 18 18 18 18 18 18 18 18 18 18 18 18 18 18 18 18 18 17 17 17 17 17 17 17 17 17 17 17 17 17 17 17
21 21 20 20 20 19 19 19 19 19 19 18 18 18 18 18 18 18 18 18 18 18 18 18 18 18 18 18 17 17 17 17 17 17 17 17 17 17 17 17 17 17 17
21 21 20 20 20 19 19 19 19 19 19 18 18 18 18 18 18 18 18 18 18 18 18 18 18 18 18 17 17 17 17 17 17 17 17 17 17 17 17 17 17 17 17
Wind_Speed
3 6 10 11 12 13 13 14 15 15 15 15 15 15 14 14 15 15 15 15 16 16 17 18 18 18 18 18 18 18 18 19 19 18 18 18 17 17 17 17 16 15 17
7 8 11 12 12 13 14 14 14 14 15 15 15 14 14 15 15 14 14 15 16 17 17 18 19 18 18 17 18 18 18 18 18 18 17 17 17 17 16 16 15 14 16
9 9 12 13 13 13 14 14 14 14 14 14 14 14 15 14 14 14 14 15 16 17 18 18 18 18 17 17 18 18 17 17 17 17 16 14 14 16 16 16 16 16 15
10 10 12 13 13 13 14 14 14 14 14 14 14 13 14 14 13 14 15 15 16 17 17 17 17 17 17 16 16 16 16 16 16 15 13 12 13 15 16 16 15 15 15
9 10 12 13 13 13 13 14 14 13 13 13 13 12 13 13 13 14 15 15 16 16 17 16 17 16 16 15 15 15 15 14 14 12 11 12 12 15 16 16 15 14 14
8 10 12 13 13 12 12 13 13 12 12 12 12 12 12 13 13 14 15 15 15 16 16 16 16 16 15 14 14 13 13 13 12 11 11 12 13 15 15 15 14 14 13
8 9 12 13 12 11 12 12 12 12 11 12 12 12 12 13 13 13 14 15 15 15 16 16 15 14 13 13 12 12 11 11 11 11 11 12 13 15 15 14 14 13 13
10 8 10 12 11 11 11 11 11 11 11 11 12 12 12 13 13 13 13 14 15 15 15 15 14 14 13 12 11 11 10 10 11 11 11 11 13 15 15 14 14 13 12
10 8 7 9 9 9 10 11 11 10 10 11 11 12 13 13 12 13 13 13 14 14 14 13 13 13 12 11 10 9 9 10 10 10 11 11 14 15 15 15 14 13 12
8 7 6 6 6 7 8 9 9 9 10 10 12 12 12 12 12 12 12 13 13 13 13 13 12 12 11 10 9 8 8 9 9 10 11 13 16 15 15 14 14 13 12
8 5 5 5 5 5 6 7 7 8 9 10 11 11 10 9 9 9 11 12 12 12 11 11 11 10 9 8 8 7 7 7 9 9 11 14 16 15 15 14 13 13 12
7 6 4 4 4 5 5 5 5 6 7 8 8 8 7 7 8 8 9 10 11 11 10 10 9 8 6 5 5 5 6 7 8 8 11 16 16 15 15 15 14 13 13
8 7 5 4 4 4 3 5 4 5 6 6 7 8 7 6 6 6 5 6 6 7 6 7 6 4 3 3 3 4 6 7 7 8 12 17 16 16 15 15 14 13 12
8 7 6 5 4 4 4 4 4 4 4 4 7 8 7 4 4 4 4 4 4 4 4 4 3 3 3 3 4 4 5 6 7 9 12 17 16 16 16 15 14 13 13
7 6 6 6 5 4 3 2 3 3 4 5 6 8 8 6 5 4 4 4 3 4 4 4 3 3 3 3 3 5 6 6 8 10 11 15 16 15 15 15 14 14 13
7 6 7 7 5 4 4 3 3 4 5 5 5 8 9 8 6 5 4 3 3 4 4 4 4 4 3 3 4 5 6 6 8 10 11 13 14 15 15 15 14 13 12
8 8 7 7 6 5 4 3 4 4 5 4 5 8 8 8 7 6 5 3 3 4 4 4 4 4 3 3 3 4 5 5 7 9 10 11 12 14 14 14 13 13 12
9 8 7 7 6 5 4 3 3 4 4 5 6 7 8 8 8 6 4 4 4 4 4 4 3 4 3 3 3 2 3 3 5 7 9 9 10 10 12 14 13 12 12
10 9 7 6 6 5 4 3 3 4 4 5 6 6 6 7 7 6 4 3 4 4 3 3 3 4 3 3 3 2 2 2 3 5 6 8 9 10 10 11 13 13 13
10 9 7 6 6 5 4 3 3 3 3 3 4 5 6 6 6 5 4 3 4 4 3 3 3 3 3 3 2 2 1 2 2 3 5 6 8 9 9 9 10 11 13
9 8 8 7 6 5 4 3 3 3 2 2 3 5 6 5 5 5 4 3 3 3 3 4 3 3 2 2 3 2 2 1 1 2 3 4 6 8 9 10 9 9 9
11 9 9 8 7 6 4 3 3 3 3 3 2 3 5 5 5 5 4 3 3 3 3 3 3 3 1 2 3 2 1 3 2 1 2 3 4 5 6 9 9 10 10
11 11 10 9 8 7 5 4 3 3 2 2 1 2 3 5 5 4 4 4 3 4 3 4 4 4 3 1 2 3 3 3 1 2 1 2 3 3 4 6 9 11 11
12 11 10 9 8 7 6 5 6 5 4 3 3 3 3 4 4 4 4 4 3 3 3 4 4 3 4 2 1 1 2 3 3 1 2 1 2 4 5 5 7 9 11
12 11 10 9 8 7 7 7 6 4 3 2 2 3 3 2 3 4 4 4 3 3 3 3 2 3 3 3 3 2 1 1 2 3 2 2 1 2 4 4 5 7 9
11 10 10 10 8 7 7 7 7 6 5 4 4 4 3 2 2 2 3 3 3 2 3 3 3 3 3 3 3 2 3 2 3 2 3 2 2 3 3 3 4 6 8
Wind_Direction
158 146 130 124 124 123 121 120 120 119 120 123 124 125 126 127 127 129 132 135 138 142 143 143 142 143 141 138 137 135 134 133 133 132 131 130 129 126 122 120 117 115 116
156 145 129 126 123 124 124 124 122 122 122 123 125 127 126 127 130 133 134 136 138 142 143 141 141 142 141 140 138 136 136 135 135 133 131 131 131 128 126 124 121 122 120
136 137 130 126 123 121 124 125 123 123 124 126 127 128 128 130 133 135 137 138 140 143 144 143 143 143 143 141 140 139 138 136 135 133 130 126 128 130 129 126 125 125 124
133 136 133 128 124 122 123 122 120 122 123 124 126 128 131 134 135 137 139 141 142 145 146 145 146 144 144 142 141 141 141 140 139 136 130 128 129 131 131 129 129 128 126
128 135 135 130 126 126 128 126 122 122 123 123 123 127 132 134 135 137 141 143 144 146 147 148 147 146 145 144 144 145 144 144 142 136 131 131 133 138 137 135 133 132 131
126 135 133 127 126 126 128 127 123 123 125 125 123 124 131 132 134 135 139 143 146 148 148 149 149 148 147 146 146 147 147 146 143 134 134 136 139 144 143 141 139 137 134
117 122 127 121 119 124 130 130 126 123 124 124 124 125 129 131 132 134 137 142 146 148 149 151 152 151 150 149 150 151 151 149 138 139 139 140 145 149 148 144 142 140 138
124 124 127 123 121 122 128 133 131 128 126 125 127 128 130 134 133 134 137 142 146 148 151 154 155 155 154 154 155 155 154 151 147 148 146 148 152 153 151 149 148 146 145
124 125 127 125 124 128 134 133 132 131 131 129 129 128 129 132 132 132 138 143 146 150 153 156 158 156 155 157 160 159 159 149 149 152 154 155 155 156 157 155 154 153 151
119 120 121 121 122 126 137 136 130 131 135 136 133 131 131 133 133 133 137 143 149 152 156 158 158 160 159 160 162 161 162 151 152 160 157 161 159 160 160 157 157 157 157
124 126 126 123 124 124 132 137 136 132 137 139 138 135 133 133 134 137 140 146 151 156 159 160 163 165 164 162 163 159 153 148 149 155 161 166 163 163 162 161 161 160 160
144 147 138 133 131 133 130 132 143 139 141 140 140 137 134 134 138 140 143 149 153 157 160 163 165 165 162 156 157 146 144 149 151 162 171 170 168 167 167 168 167 166 164
156 154 152 146 139 135 123 135 137 136 140 143 147 145 141 138 144 143 147 148 154 161 166 169 174 180 167 148 135 141 151 158 158 167 173 170 170 169 170 170 170 169 169
155 154 151 146 139 137 130 135 142 145 152 157 162 158 148 144 138 139 139 148 155 161 159 168 170 169 156 151 144 148 154 160 162 163 168 170 169 170 172 173 172 173 173
150 150 147 140 138 134 122 134 136 148 160 165 167 166 157 147 140 139 144 154 163 160 157 157 160 153 144 151 146 145 146 153 161 163 169 170 171 174 177 177 177 179 180
148 148 149 141 138 130 122 120 142 161 167 164 163 165 159 157 154 149 145 153 170 173 168 163 157 147 145 136 127 131 138 146 155 164 169 173 177 180 183 184 185 187 189
151 147 149 145 139 134 131 134 142 158 159 156 163 159 155 156 157 156 148 149 168 169 148 136 130 131 126 120 116 125 137 145 156 168 175 177 180 187 189 190 191 193 193
145 143 148 147 143 142 138 126 125 137 140 148 157 156 154 155 153 149 143 147 158 146 134 126 120 115 112 109 111 124 133 147 163 171 173 177 181 186 192 195 195 195 197
150 149 149 142 148 153 143 128 117 120 132 149 151 152 153 152 151 145 143 150 147 131 124 135 125 125 125 120 124 130 136 154 169 176 174 181 186 189 191 195 199 201 204
150 149 150 146 150 150 136 121 105 100 113 140 146 154 151 154 152 146 142 147 141 126 122 127 130 128 133 139 129 112 143 188 184 189 190 184 187 192 196 196 203 208 210
150 148 150 150 156 150 142 139 131 132 139 140 152 161 161 158 150 143 140 142 141 140 152 146 131 131 137 130 100 58 5 310 214 203 195 188 192 197 199 200 202 205 208
160 157 155 158 161 162 161 159 154 149 154 162 154 156 162 160 161 156 146 154 155 149 150 151 140 138 160 142 132 115 41 354 335 258 193 186 192 193 201 206 206 207 209
166 167 166 164 163 164 156 138 127 103 96 104 122 150 166 163 166 161 157 159 158 158 167 177 168 160 165 183 157 146 152 207 274 320 227 195 189 190 204 208 208 211 212
175 172 166 165 166 168 162 154 149 150 158 182 177 169 171 171 168 165 160 162 157 161 173 192 181 169 156 179 217 189 175 166 168 253 319 270 219 213 216 214 209 210 210
176 174 169 164 168 169 167 165 162 164 173 163 153 153 165 178 180 176 172 170 168 173 179 180 169 168 162 173 185 183 177 178 164 164 229 277 286 241 225 219 212 210 209
175 172 170 168 172 173 169 167 168 169 168 155 157 166 177 180 185 190 177 169 171 170 178 183 184 177 179 175 180 176 173 177 191 178 201 224 242 256 244 229 218 213 211
Height
1514 1513 1512 1511 1510 1510 1509 1509 1509 1509 1509 1510 1511 1512 1513 1514 1515 1516 1517 1519 1520 1523 1525 1528 1531 1534 1536 1539 1541 1543 1545 1547 1549 1550 1552 1553 1554 1556 1557 1558 1559 1560 1561
1514 1514 1513 1512 1511 1511 1510 1510 1510 1510 1511 1511 1512 1513 1513 1514 1515 1516 1517 1518 1520 1522 1525 1528 1531 1534 1537 1539 1542 1544 1546 1548 1550 1551 1553 1554 1556 1557 1558 1559 1560 1561 1562
1514 1514 1514 1513 1513 1512 1511 1511 1511 1512 1512 1512 1513 1513 1514 1514 1515 1516 1516 1518 1520 1522 1525 1528 1531 1534 1537 1540 1543 1545 1547 1549 1551 1553 1554 1555 1557 1558 1559 1560 1561 1562 1563
1515 1515 1515 1515 1514 1514 1513 1513 1513 1513 1513 1513 1514 1514 1514 1515 1515 1515 1516 1518 1520 1523 1526 1529 1532 1535 1538 1541 1544 1546 1548 1550 1552 1554 1555 1556 1558 1559 1560 1561 1562 1563 1564
1516 1516 1516 1516 1515 1515 1514 1514 1514 1514 1514 1514 1515 1514 1514 1515 1515 1515 1517 1518 1521 1523 1526 1529 1532 1535 1538 1541 1544 1547 1549 1551 1552 1554 1556 1557 1558 1560 1561 1562 1563 1564 1565
1517 1517 1517 1517 1516 1516 1516 1515 1515 1516 1516 1515 1515 1514 1515 1515 1515 1516 1517 1519 1521 1524 1527 1530 1533 1536 1539 1542 1545 1547 1549 1551 1553 1555 1556 1558 1559 1561 1562 1563 1564 1565 1566
1517 1518 1518 1518 1517 1517 1517 1517 1516 1516 1516 1516 1516 1515 1515 1515 1516 1517 1518 1520 1522 1525 1528 1531 1534 1537 1540 1543 1545 1548 1550 1552 1553 1555 1557 1558 1560 1561 1562 1564 1565 1566 1567
1518 1519 1519 1518 1518 1518 1517 1517 1517 1517 1517 1517 1517 1516 1516 1517 1517 1518 1520 1522 1524 1527 1529 1532 1535 1538 1540 1543 1546 1549 1551 1552 1554 1556 1557 1559 1560 1561 1563 1564 1565 1566 1567
1520 1520 1520 1519 1518 1518 1518 1518 1518 1517 1517 1517 1518 1518 1517 1518 1519 1520 1521 1523 1525 1528 1531 1533 1536 1538 1541 1544 1547 1549 1551 1553 1554 1556 1557 1559 1560 1562 1563 1564 1566 1567 1568
1521 1521 1521 1520 1519 1519 1519 1519 1518 1517 1517 1517 1518 1519 1520 1520 1521 1522 1523 1525 1527 1530 1532 1535 1537 1540 1542 1545 1547 1549 1551 1553 1554 1556 1558 1559 1560 1562 1563 1565 1566 1567 1568
1522 1522 1522 1521 1520 1520 1520 1520 1519 1518 1518 1519 1520 1521 1521 1522 1523 1525 1526 1527 1529 1531 1534 1536 1538 1541 1544 1546 1548 1550 1551 1553 1554 1556 1557 1559 1560 1562 1563 1565 1566 1567 1568
1522 1523 1522 1522 1522 1521 1521 1520 1520 1520 1520 1520 1521 1522 1523 1524 1525 1526 1528 1529 1531 1533 1535 1537 1539 1542 1544 1546 1548 1549 1551 1553 1554 1556 1557 1559 1560 1562 1563 1565 1566 1567 1568
1522 1523 1523 1523 1522 1522 1521 1521 1521 1521 1522 1522 1523 1524 1525 1526 1527 1528 1529 1531 1532 1533 1535 1538 1540 1543 1545 1546 1548 1549 1551 1553 1554 1555 1557 1558 1560 1561 1563 1564 1565 1566 1568
1523 1523 1523 1523 1523 1523 1522 1522 1523 1523 1523 1524 1525 1526 1527 1528 1529 1530 1531 1532 1533 1534 1535 1538 1541 1543 1545 1547 1548 1550 1551 1553 1554 1555 1556 1558 1560 1561 1562 1564 1565 1566 1567
1523 1523 1524 1524 1524 1524 1523 1523 1524 1525 1525 1526 1526 1527 1528 1529 1530 1532 1532 1534 1535 1535 1536 1539 1541 1543 1545 1547 1549 1550 1551 1553 1554 1555 1556 1558 1559 1561 1562 1563 1564 1566 1566
1523 1524 1524 1524 1525 1525 1525 1525 1525 1526 1526 1527 1527 1528 1530 1531 1532 1533 1534 1535 1536 1537 1538 1540 1542 1544 1546 1548 1549 1550 1552 1553 1554 1555 1556 1558 1560 1561 1562 1563 1564 1565 1566
1524 1524 1525 1526 1526 1526 1526 1526 1526 1527 1527 1527 1528 1530 1531 1533 1534 1535 1536 1537 1538 1539 1540 1542 1544 1546 1547 1548 1550 1551 1552 1553 1555 1556 1557 1558 1559 1560 1561 1562 1563 1564 1565
1524 1525 1526 1526 1527 1527 1527 1527 1528 1528 1528 1528 1529 1531 1533 1534 1535 1536 1538 1539 1540 1541 1542 1543 1545 1547 1548 1549 1550 1551 1552 1554 1555 1556 1557 1558 1559 1560 1561 1561 1562 1563 1564
1524 1525 1526 1527 1528 1528 1528 1529 1529 1529 1529 1530 1531 1532 1534 1535 1537 1538 1539 1540 1541 1542 1544 1545 1546 1548 1549 1550 1551 1552 1552 1553 1554 1555 1556 1557 1558 1559 1560 1561 1562 1562 1563
1524 1525 1526 1527 1528 1529 1530 1530 1530 1531 1531 1532 1533 1534 1535 1537 1538 1539 1540 1541 1542 1544 1545 1546 1547 1548 1549 1550 1551 1552 1552 1553 1553 1554 1555 1556 1557 1558 1559 1560 1560 1561 1561
1523 1524 1526 1527 1528 1529 1530 1530 1531 1532 1532 1534 1534 1536 1537 1538 1539 1540 1541 1542 1543 1544 1545 1547 1548 1549 1550 1550 1551 1552 1552 1553 1553 1554 1554 1555 1556 1557 1558 1558 1559 1560 1560
1522 1523 1525 1526 1528 1529 1530 1531 1532 1533 1534 1535 1536 1536 1538 1539 1540 1541 1542 1542 1544 1545 1546 1547 1548 1548 1549 1550 1551 1551 1552 1554 1553 1553 1553 1554 1555 1555 1556 1557 1558 1558 1559
1520 1522 1523 1525 1527 1529 1531 1532 1533 1534 1535 1535 1536 1537 1538 1539 1540 1541 1542 1543 1544 1545 1545 1546 1547 1548 1549 1550 1551 1552 1552 1552 1552 1553 1552 1553 1553 1554 1554 1555 1556 1556 1557
1518 1521 1522 1524 1527 1528 1530 1531 1532 1533 1534 1535 1536 1537 1538 1539 1540 1541 1542 1543 1544 1545 1545 1546 1547 1548 1548 1549 1550 1550 1551 1551 1551 1550 1551 1552 1552 1553 1553 1554 1554 1554 1555
1517 1519 1521 1524 1526 1528 1529 1531 1532 1533 1534 1536 1537 1538 1538 1539 1540 1541 1542 1542 1543 1544 1545 1546 1546 1547 1548 1548 1548 1549 1549 1550 1550 1550 1549 1550 1551 1551 1551 1552 1552 1552 1552
1516 1518 1520 1523 1525 1527 1528 1530 1531 1533 1534 1535 1536 1537 1538 1539 1539 1540 1541 1542 1542 1543 1544 1544 1545 1546 1547 1547 1547 1548 1548 1548 1548 1548 1548 1548 1548 1549 1550 1550 1550 1550 1550